Flag for India Weather past 2 weeks in Jaipur, Rajasthan, India

Now
93 °F

Scattered clouds.


Feels Like: 93 °F
Forecast: 74 / 96 °F
Wind: 6 mph from Northwest

Location: Jaipur / Sanganer

Current Time: Oct 1, 2014 at 5:51:18 PM

Latest Report: Oct 1, 2014 at 5:00 PM


Visibility: 2 mi

Pressure: 29.89 "Hg

Humidity: 32%

Dew point: 59 °F

Location of JaipurLocation

Historic Weather in Jaipur — Graph

°F

Jaipur temperature yesterday

Maximum temperature yesterday: 95 °F (at 3:00 PM)
Minimum temperature yesterday: 77 °F (at 6:00 AM)
Average temperature yesterday: 87 °F

Past Weeks' High & Low Weather Summary

 TemperatureHumidityPressure
High102 °F (Sep 26, 11:00 AM)100% (Sep 19, 3:00 AM)30.01 "Hg (Sep 19, 3:00 AM)
Low72 °F (Sep 19, 3:00 AM)26% (Sep 29, 5:00 PM)29.65 "Hg (Sep 16, 4:00 PM)
Average85 °F55%29.83 "Hg
* Reported Sep 16 4:00 PM — Oct 1 4:00 PM, Jaipur, Weather by CustomWeather, © 2014

Note: Actual official high and low records may vary slightly from our data, if they occured in-between our weather recording intervals... More about our weather records

Advertising

Jaipur weather history for previous 24 hours

 ConditionsComfort  
Time TempWeatherWind HumidityBarometerVisibility
4:00 PM
Oct 1
95 °FScattered clouds.8 mph30%29.89 "Hg2 mi
3:00 PM95 °FScattered clouds.6 mph30%29.89 "Hg2 mi
2:00 PM93 °FScattered clouds.6 mph36%29.92 "Hg2 mi
1:30 PM93 °FScattered clouds.6 mph34%29.95 "Hg2 mi
1:00 PM93 °FScattered clouds.9 mph36%29.95 "Hg2 mi
12:30 PM93 °FScattered clouds.6 mph41%29.95 "Hg2 mi
10:00 AM90 °FHaze.5 mph46%30.01 "Hg2 mi
9:00 AM86 °FHaze.5 mph52%30.01 "Hg2 mi
8:00 AM82 °FHaze.3 mph58%29.98 "Hg2 mi
7:00 AM79 °FHaze.3 mph61%29.95 "Hg2 mi
6:00 AM79 °FHaze.3 mph61%29.95 "Hg2 mi
5:00 AM79 °FHaze.3 mph58%29.92 "Hg2 mi
4:00 AM81 °FHaze.3 mph54%29.92 "Hg2 mi
3:00 AM81 °FHaze.2 mph54%29.92 "Hg2 mi
1:00 AM77 °FHaze.No wind61%29.92 "Hg2 mi
12:00 AM81 °FHaze.3 mph51%29.95 "Hg2 mi
11:00 PM
Sep 30
82 °FHaze.5 mph48%29.95 "Hg2 mi
10:00 PM84 °FHaze.2 mph43%29.95 "Hg2 mi
9:00 PM88 °FHaze.3 mph35%29.92 "Hg2 mi
8:00 PM88 °FHaze.2 mph35%29.92 "Hg2 mi
7:00 PM90 °FHaze.3 mph33%29.89 "Hg2 mi
6:00 PM91 °FHaze.5 mph34%29.86 "Hg2 mi
5:00 PM93 °FHaze.6 mph30%29.86 "Hg2 mi
Weather by CustomWeather, © 2014

See weather overviewHow to use our weather pages